Regional Weather Roundup
Issued by NWS Green Bay, WI

Home | Current Version | Previous Version | Graphics & Text | Print | Product List | Glossary Off
Versions: 1 2 3 4 5 6 7 8 9 10 11 12 13 14 15 16 17 18 19 20 21 22 23 24 25 26 27 28 29 30 31 32 33 34 35 36 37 38 39 40 41 42 43 44 45 46 47 48 49 50

000
ASUS43 KGRB 300410
RWRGRB

NORTH-CENTRAL AND NORTHEAST WISCONSIN REGIONAL WEATHER ROUNDUP
NATIONAL WEATHER SERVICE GREEN BAY WI
1100 PM CDT SUN MAR 29 2015

WIZ005-009-010>012-018-019-300500-
NORTH CENTRAL WISCONSIN

CITY           SKY/WX    TMP DP  RH WIND       PRES   REMARKS
IRONWOOD       CLEAR     36  28  75 W12       29.77R
MANITOWISH WTR PTCLDY    32  29  88 NW6       29.78R
ARBOR VITAE    CLEAR     37  31  82 NW5       29.78S
EAGLE RIVER    CLOUDY    35  28  75 W9        29.76R
LAND O LAKES   CLOUDY    35  30  82 NW7       29.76R
RHINELANDER    PTCLDY    35  29  78 W9        29.79R
PHILLIPS       MOCLDY    33  29  84 CALM      29.82R
ANTIGO         PTCLDY    35  30  80 NW12      29.80R
TOMAHAWK       PTCLDY    35  28  75 W7        29.82R
MERRILL        CLOUDY    37  31  77 NW9       29.83R
$$

WIZ013-073-300500-
NORTHEAST WISCONSIN

CITY           SKY/WX    TMP DP  RH WIND       PRES   REMARKS
IRON MOUNTAIN  MOCLDY    37  28  70 NW16      29.70R
MARINETTE      CLEAR     39  28  65 NW6       29.73R
OCONTO         MOCLDY    38  32  78 W8        29.76R
$$

WIZ017-030-035>037-045-300500-
CENTRAL WISCONSIN

CITY           SKY/WX    TMP DP  RH WIND       PRES   REMARKS
MEDFORD        CLOUDY    35  30  80 W6        29.84R
WAUSAU         CLOUDY    38  31  76 NW7       29.82R
MOSINEE        CLOUDY    36  32  87 W8        29.85R
MARSHFIELD     MOCLDY    36  29  75 W6        29.85R
WISC RAPIDS    MOCLDY    35  29  78 W5        29.88R
STEVENS POINT  CLOUDY    35  30  82 W5        29.86R
WAUPACA        PTCLDY    42  31  65 W7        29.85R
SHAWANO        PTCLDY    40  32  73 NW12      29.80R
CLINTONVILLE   PTCLDY    37  30  75 NW12G20   29.81R
$$

WIZ038-039-048-051-300500-
FOX VALLEY

CITY           SKY/WX    TMP DP  RH WIND       PRES   REMARKS
NWS GREEN BAY  CLEAR     39  31  72 W13       29.80R
APPLETON       PTCLDY    39  28  65 NW17G23   29.83R
OSHKOSH        MOCLDY    39  30  70 W8        29.85R
FOND DU LAC    CLOUDY    40  30  67 W9        29.86R
$$

WIZ022-050-052-300500-
EAST CENTRAL WISCONSIN

CITY           SKY/WX    TMP DP  RH WIND       PRES   REMARKS
STURGEON BAY   PTCLDY    37  30  75 W14       29.76R
MANITOWOC      PTCLDY    39  32  76 W14G24    29.80R
SHEBOYGAN      PTCLDY    39  30  70 W14G21    29.83R
$$

LMZ563-521-522-541>543-300500-
LAKESHORE

STATION/POSITION TIME  TEMP    WIND        PRES    VSBY  WAVE
                       AIR SEA DIR/SP/G                  HT/PER
                 (UTC) (F)     (DEG/KT/KT) (MB)    (MI)  (FT/S)
SHEBOYGAN LKSHOR 0400   41     280/ 14/ 17 1010.7R
KEWAUNEE LKSHORE 0400   40     300/ 14/ 20 1006.9R
NORTHPORT PIER   0400   38     290/ 11/ 18 1005.4S
SISTER BAY LKSHO 0400   36     290/ 14/ 15   N/A
CHAMBERS ISLAND  0400   38     300/  5/ 11 1006.4S
MENOMINEE LKSHOR 0400   40     280/ 12     1007.3R
$$



USA.gov is the U.S. government's official web portal to all federal, state and local government web resources and services.